Regional Weather Roundup
Issued by NWS

Home | Current Version | Previous Version | Text Only | Print | Product List | Glossary Off
Versions: 1 2 3 4 5 6 7 8 9 10 11 12 13 14 15 16 17 18 19 20 21 22 23 24 25 26 27 28 29 30 31 32 33 34 35 36 37 38 39 40 41 42 43 44 45 46 47 48 49 50

000
ASUS43 KFSD 152210
RWRSD

WEATHER ROUNDUP FOR SOUTH DAKOTA
NATIONAL WEATHER SERVICE SIOUX FALLS SD
400 PM CST FRI DEC 15 2017

NOTE: "FAIR" INDICATES FEW OR NO CLOUDS BELOW 12,000 FEET WITH NO
SIGNIFICANT WEATHER AND/OR OBSTRUCTIONS TO VISIBILITY.


SDZ001>005-009-010-012>017-152300-
NORTHWEST AND NORTH CENTRAL SOUTH DAKOTA

CITY           SKY/WX    TMP DP  RH WIND       PRES   REMARKS
BUFFALO          N/A     46  21  37 W17       29.58S
FAITH            N/A     48  22  35 W16       29.62F
MOBRIDGE       CLOUDY    46  28  49 NW3       29.57F
$$

SDZ012>016-024>037-041>051-057-063-072>074-152300-
SOUTHWEST AND SOUTH CENTRAL SOUTH DAKOTA

CITY           SKY/WX    TMP DP  RH WIND       PRES   REMARKS
RAPID CTY ARPT CLOUDY    51  18  27 E6        29.69F
PIERRE         CLOUDY    51  27  39 W12       29.64S
CUSTER         CLOUDY    45  11  25 W8        29.75F
ELLSWORTH AFB  CLOUDY    54  15  21 N6        29.68F
PHILIP         CLOUDY    48  26  42 SW12      29.67F
PINE RIDGE     CLOUDY    55  18  23 W8        29.75R
SPEARFISH      FAIR      54  12  19 W14G25    29.69F
WINNER         FAIR      48  30  49 SW14      29.70F
$$

SDZ004>011-016>023-039-040-152300-
NORTHEAST SOUTH DAKOTA

CITY           SKY/WX    TMP DP  RH WIND       PRES   REMARKS
ABERDEEN       CLOUDY    40  27  59 S8        29.63F
WATERTOWN      CLOUDY    36  30  79 S8        29.64F
BROOKINGS      CLOUDY    38  26  62 S9        29.68F
SISSETON         N/A     35  31  85 SE6       29.65F
$$

SDZ017-020-022-023-036>040-048>070-152300-
SOUTHEAST SOUTH DAKOTA

CITY           SKY/WX    TMP DP  RH WIND       PRES   REMARKS
SIOUX FALLS    CLOUDY    40  26  57 SW8       29.73F
HURON          CLOUDY    42  26  53 S9        29.65F
CHAMBERLAIN    CLOUDY    46  32  58 S6        29.67F
MITCHELL       CLOUDY    44  27  51 S8        29.68F
YANKTON        PTCLDY    46  26  45 SW8       29.74F
$$

ABBREVIATIONS USED IN REMARKS
   TC - TEMPERATURE IN CELSIUS
  WCI - WIND CHILL INDEX
   HX - HEAT INDEX
  VSB - VISIBILITY





USA.gov is the U.S. government's official web portal to all federal, state and local government web resources and services.